DW3248 Weather Reports


time (UTC)temp
C
wind
direction
speed
KPH
gust
KPH
rain 1hr
cm
rain 24hr
cm
rain mn
cm
humidity
%
barometer
mb
20260507073624 12 1 6.4 16.1 0.00 0.00 0.00 69 1015.9
20260507073127 11 7 8.0 14.5 0.00 0.00 0.00 73 1015.8
20260507072624 11 354 8.0 14.5 0.00 0.00 0.00 73 1015.8
20260507072126 11 354 8.0 20.9 0.00 0.00 0.00 74 1015.8
20260507071624 11 351 8.0 20.9 0.00 0.00 0.00 73 1015.8
20260507071126 11 21 8.0 14.5 0.00 0.00 0.00 73 1015.8
20260507070127 11 352 9.7 17.7 0.00 0.00 0.00 74 1015.7
20260507065126 11 346 8.0 14.5 0.00 0.00 0.00 75 1015.7
20260507064128 11 2 8.0 17.7 0.00 0.00 0.00 75 1015.6
20260507063624 11 352 9.7 17.7 0.00 0.00 0.00 76 1015.6
20260507063127 10 359 8.0 16.1 0.00 0.00 0.00 76 1015.5
20260507062624 11 344 8.0 14.5 0.00 0.00 0.00 76 1015.5
20260507062130 10 350 6.4 11.3 0.00 0.00 0.00 77 1015.5
20260507061624 10 2 9.7 17.7 0.00 0.00 0.00 76 1015.4
20260507061127 10 4 8.0 12.9 0.00 0.00 0.00 77 1015.4
20260507060625 10 6 6.4 11.3 0.00 0.00 0.00 78 1015.4
20260507060126 10 348 9.7 19.3 0.00 0.00 0.00 78 1015.4
20260507055624 10 360 6.4 16.1 0.00 0.00 0.00 80 1015.3
20260507055127 10 354 6.4 12.9 0.00 0.00 0.00 80 1015.3
20260507054624 9 344 4.8 9.7 0.00 0.00 0.00 82 1015.2
20260507053126 8 353 4.8 9.7 0.00 0.00 0.00 84 1015.2
20260507052624 8 336 4.8 9.7 0.00 0.00 0.00 86 1015.1
20260507052127 8 337 3.2 8.0 0.00 0.00 0.00 86 1015.1
20260507051624 8 4 4.8 8.0 0.00 0.00 0.00 87 1015.0
20260507051127 8 340 3.2 6.4 0.00 0.00 0.00 88 1015.0
20260507050129 7 337 3.2 6.4 0.00 0.00 0.00 89 1014.9
20260507045624 7 338 3.2 8.0 0.00 0.00 0.00 89 1014.9
20260507045130 7 345 3.2 8.0 0.00 0.00 0.00 89 1014.8
20260507044624 7 350 3.2 8.0 0.00 0.00 0.00 89 1014.8
20260507044126 7 344 3.2 6.4 0.00 0.00 0.00 90 1014.7
20260507043624 7 356 3.2 6.4 0.00 0.00 0.00 89 1014.7
20260507043127 7 346 3.2 6.4 0.00 0.00 0.00 89 1014.6
20260507042624 7 327 3.2 6.4 0.00 0.00 0.00 89 1014.6
20260507041624 7 344 3.2 6.4 0.00 0.00 0.00 89 1014.6
20260507041126 7 340 4.8 8.0 0.00 0.00 0.00 89 1014.6
20260507040624 7 333 4.8 9.7 0.00 0.00 0.00 90 1014.5
20260507040126 7 332 4.8 8.0 0.00 0.00 0.00 90 1014.4
20260507035624 7 346 3.2 8.0 0.00 0.00 0.00 89 1014.4
20260507035128 7 346 3.2 8.0 0.00 0.00 0.00 89 1014.4
20260507034624 7 352 4.8 11.3 0.00 0.00 0.00 89 1014.4
20260507034127 7 350 3.2 6.4 0.00 0.00 0.00 89 1014.4
20260507033624 7 352 4.8 8.0 0.00 0.00 0.00 89 1014.3
20260507032624 7 359 3.2 8.0 0.00 0.00 0.00 89 1014.3
20260507032128 7 354 3.2 8.0 0.00 0.00 0.00 89 1014.3
20260507031624 7 351 3.2 9.7 0.00 0.00 0.00 89 1014.3
20260507031126 7 346 3.2 8.0 0.00 0.00 0.00 89 1014.3
20260507030624 7 334 3.2 6.4 0.00 0.00 0.00 88 1014.2
20260507030127 7 353 3.2 8.0 0.00 0.00 0.00 88 1014.2
20260507025624 7 339 4.8 8.0 0.00 0.00 0.00 88 1014.2
20260507025126 7 346 4.8 8.0 0.00 0.00 0.00 88 1014.2
20260507024624 7 345 4.8 6.4 0.00 0.00 0.00 88 1014.1
20260507023624 7 347 3.2 8.0 0.00 0.00 0.00 87 1014.2
20260507022624 7 335 4.8 8.0 0.00 0.00 0.00 87 1014.1
20260507022129 7 343 4.8 9.7 0.00 0.00 0.00 87 1014.1
20260507021129 7 347 4.8 9.7 0.00 0.00 0.00 87 1014.0
20260507020624 7 331 4.8 9.7 0.00 0.00 0.00 87 1014.0
20260507020129 7 347 4.8 9.7 0.00 0.00 0.00 87 1013.9
20260507015624 7 347 4.8 11.3 0.00 0.00 0.00 87 1013.9
20260507015129 7 358 4.8 11.3 0.00 0.00 0.00 87 1013.8
20260507014624 7 344 4.8 11.3 0.00 0.00 0.00 87 1013.8
20260507014127 7 346 4.8 9.7 0.00 0.00 0.00 88 1013.8
20260507013624 7 332 3.2 6.4 0.00 0.00 0.00 87 1013.8
20260507013126 7 351 4.8 8.0 0.00 0.00 0.00 87 1013.7
20260507011624 7 356 4.8 9.7 0.00 0.00 0.00 87 1013.7
20260507010624 7 353 4.8 9.7 0.00 0.00 0.00 88 1013.7
20260507010128 7 352 4.8 9.7 0.00 0.00 0.00 88 1013.7
20260507005624 8 340 6.4 12.9 0.00 0.00 0.00 88 1013.7
20260507005127 8 336 4.8 11.3 0.00 0.00 0.00 88 1013.7
20260507004624 8 351 4.8 8.0 0.00 0.00 0.00 88 1013.7
20260507004126 8 345 4.8 9.7 0.00 0.00 0.00 88 1013.7
20260507003624 8 354 6.4 11.3 0.00 0.00 0.00 88 1013.7
20260507002624 8 338 4.8 14.5 0.00 0.00 0.00 88 1013.7
20260507002127 8 360 4.8 14.5 0.00 0.00 0.00 88 1013.6
20260507001625 8 354 4.8 9.7 0.00 0.00 0.00 88 1013.6
20260507001126 8 356 6.4 12.9 0.00 0.00 0.00 88 1013.6
20260507000624 8 332 4.8 9.7 0.00 0.00 0.00 89 1013.5
20260507000128 8 325 4.8 11.3 0.00 0.00 0.00 89 1013.5
20260506235624 8 328 4.8 9.7 0.00 0.00 0.00 89 1013.5
20260506235127 8 327 6.4 11.3 0.00 0.00 0.00 89 1013.5
20260506234624 8 328 6.4 12.9 0.00 0.00 0.00 89 1013.5
20260506234128 8 345 4.8 9.7 0.00 0.00 0.00 88 1013.5
20260506233624 8 338 6.4 14.5 0.00 0.00 0.00 88 1013.5
20260506233127 8 345 6.4 12.9 0.00 0.00 0.00 88 1013.5
20260506232624 8 334 6.4 12.9 0.00 0.00 0.00 88 1013.5
20260506232128 8 349 6.4 11.3 0.00 0.00 0.00 88 1013.5
20260506231624 8 346 4.8 9.7 0.00 0.00 0.00 88 1013.5
20260506230624 8 335 4.8 14.5 0.00 0.00 0.00 87 1013.4
20260506230125 9 348 6.4 9.7 0.00 0.00 0.00 87 1013.4
20260506225127 9 347 6.4 16.1 0.00 0.00 0.00 86 1013.4
20260506224624 9 334 6.4 12.9 0.00 0.00 0.00 86 1013.4
20260506224126 9 338 6.4 14.5 0.00 0.00 0.00 85 1013.4
20260506223129 9 358 8.0 16.1 0.00 0.00 0.00 85 1013.3
20260506222624 9 346 8.0 12.9 0.00 0.00 0.00 85 1013.3
20260506222126 9 348 6.4 11.3 0.00 0.00 0.00 84 1013.3
20260506221624 10 343 9.7 17.7 0.00 0.00 0.00 84 1013.2
20260506221126 10 354 8.0 14.5 0.00 0.00 0.00 84 1013.2
20260506220625 10 354 8.0 17.7 0.00 0.00 0.00 83 1013.2
20260506220127 10 338 9.7 17.7 0.00 0.00 0.00 83 1013.2
20260506215624 10 336 8.0 20.9 0.00 0.00 0.00 83 1013.2
20260506215129 10 355 8.0 14.5 0.00 0.00 0.00 82 1013.1
20260506214624 10 354 9.7 16.1 0.00 0.00 0.00 82 1013.0
20260506213624 10 1 4.8 9.7 0.00 0.00 0.00 81 1013.0
20260506213127 10 356 9.7 16.1 0.00 0.00 0.00 80 1012.9
20260506211624 10 342 9.7 20.9 0.00 0.00 0.00 77 1012.8
20260506210128 11 353 9.7 17.7 0.00 0.00 0.00 76 1012.7
20260506205624 11 2 11.3 20.9 0.00 0.00 0.00 75 1012.6
20260506205128 11 7 9.7 24.1 0.00 0.00 0.00 75 1012.6
20260506204624 11 343 9.7 17.7 0.00 0.00 0.00 75 1012.5
20260506204128 11 356 9.7 22.5 0.00 0.00 0.00 74 1012.5
20260506203624 11 342 9.7 19.3 0.00 0.00 0.00 73 1012.5
20260506203129 11 355 11.3 29.0 0.00 0.00 0.00 73 1012.5
20260506202624 11 2 11.3 24.1 0.00 0.00 0.00 73 1012.4
20260506202126 11 0 9.7 20.9 0.00 0.00 0.00 72 1012.4
20260506201624 11 353 11.3 24.1 0.00 0.00 0.00 71 1012.4
20260506200624 11 354 12.9 27.4 0.00 0.00 0.00 69 1012.3
20260506195624 12 0 9.7 24.1 0.00 0.00 0.00 69 1012.2
20260506195126 12 360 11.3 24.1 0.00 0.00 0.00 69 1012.2
20260506194127 12 355 12.9 24.1 0.00 0.00 0.00 68 1012.1
20260506193623 12 359 9.7 20.9 0.00 0.00 0.00 68 1012.0
20260506193126 12 354 9.7 27.4 0.00 0.00 0.00 68 1011.9
20260506192623 12 357 12.9 27.4 0.00 0.00 0.00 67 1011.8
20260506191623 12 354 9.7 17.7 0.00 0.00 0.00 68 1011.7
20260506191126 12 7 11.3 22.5 0.00 0.00 0.00 68 1011.6
20260506190623 12 352 12.9 25.7 0.00 0.00 0.00 69 1011.5
20260506190124 12 351 11.3 22.5 0.00 0.00 0.00 69 1011.5
20260506185623 12 3 12.9 24.1 0.00 0.00 0.00 69 1011.4
20260506185126 12 356 12.9 29.0 0.00 0.00 0.00 69 1011.4
20260506184623 12 355 12.9 24.1 0.00 0.00 0.00 69 1011.3
20260506184125 12 350 9.7 22.5 0.00 0.00 0.00 69 1011.3
20260506183623 12 349 12.9 24.1 0.00 0.00 0.00 68 1011.2
20260506183126 12 2 12.9 24.1 0.00 0.00 0.00 68 1011.1
20260506182623 12 349 9.7 30.6 0.00 0.00 0.00 68 1011.1
20260506182125 12 20 11.3 24.1 0.00 0.00 0.00 68 1011.1
20260506181623 12 12 9.7 22.5 0.00 0.00 0.00 68 1011.0
20260506180623 12 354 12.9 27.4 0.00 0.00 0.00 66 1010.9
20260506180125 12 3 11.3 27.4 0.00 0.00 0.00 65 1010.9
20260506175623 12 3 9.7 17.7 0.00 0.00 0.00 65 1010.8
20260506175126 12 2 8.0 19.3 0.00 0.00 0.00 65 1010.8
20260506174623 12 1 4.8 17.7 0.00 0.00 0.00 65 1010.7
20260506174126 12 6 8.0 16.1 0.00 0.00 0.00 65 1010.6
20260506173623 12 353 8.0 14.5 0.00 0.00 0.00 64 1010.5
20260506173125 12 1 8.0 16.1 0.00 0.00 0.00 64 1010.5
20260506171623 12 30 8.0 19.3 0.00 0.00 0.00 64 1010.4
20260506171125 13 40 6.4 14.5 0.00 0.00 0.00 63 1010.4
20260506170623 13 21 8.0 16.1 0.00 0.00 0.00 63 1010.3
20260506165624 13 28 8.0 17.7 0.00 0.00 0.00 61 1010.3
20260506165125 13 32 6.4 17.7 0.00 0.00 0.00 61 1010.2
20260506164624 13 30 8.0 24.1 0.00 0.00 0.00 61 1010.3
20260506163623 13 64 6.4 12.9 0.00 0.00 0.00 60 1010.2
20260506163125 13 26 6.4 9.7 0.00 0.00 0.00 60 1010.1
20260506162623 13 19 6.4 16.1 0.00 0.00 0.00 58 1010.1
20260506162126 13 56 9.7 20.9 0.00 0.00 0.00 57 1010.1
20260506161623 13 31 6.4 12.9 0.00 0.00 0.00 57 1010.1
20260506161125 14 81 6.4 12.9 0.00 0.00 0.00 56 1010.1
20260506160125 13 39 9.7 20.9 0.00 0.00 0.00 55 1010.1
20260506155623 13 39 9.7 22.5 0.00 0.00 0.00 55 1010.1
20260506155127 13 41 11.3 20.9 0.00 0.00 0.00 55 1010.1
20260506154623 13 12 6.4 19.3 0.00 0.00 0.00 56 1010.1
20260506154127 13 20 6.4 16.1 0.00 0.00 0.00 56 1010.2
20260506153126 13 20 8.0 20.9 0.00 0.00 0.00 54 1010.2
20260506152127 14 17 6.4 17.7 0.00 0.00 0.00 54 1010.1
20260506151623 14 38 6.4 12.9 0.00 0.00 0.00 53 1010.0
20260506151126 13 38 8.0 17.7 0.00 0.00 0.00 53 1010.0
20260506150623 13 35 11.3 22.5 0.00 0.00 0.00 52 1010.0
20260506150124 13 35 11.3 24.1 0.00 0.00 0.00 51 1010.0
20260506145623 14 46 11.3 22.5 0.00 0.00 0.00 50 1010.0
20260506145124 14 42 8.0 19.3 0.00 0.00 0.00 50 1009.9
20260506144623 14 16 8.0 19.3 0.00 0.00 0.00 51 1009.9
20260506144126 14 0 8.0 17.7 0.00 0.00 0.00 50 1009.9
20260506143623 14 29 9.7 22.5 0.00 0.00 0.00 51 1009.9
20260506143128 14 22 8.0 17.7 0.00 0.00 0.00 51 1009.9
20260506142623 14 40 8.0 19.3 0.00 0.00 0.00 49 1009.9
20260506142126 14 26 9.7 29.0 0.00 0.00 0.00 49 1009.9
20260506141623 14 27 11.3 20.9 0.00 0.00 0.00 49 1009.9
20260506141126 14 12 11.3 30.6 0.00 0.00 0.00 49 1009.9
20260506140623 15 359 11.3 27.4 0.00 0.00 0.00 47 1009.9
20260506140126 15 36 11.3 25.7 0.00 0.00 0.00 50 1009.9
20260506134127 15 53 9.7 19.3 0.00 0.00 0.00 50 1009.8
20260506133623 15 16 11.3 24.1 0.00 0.00 0.00 51 1009.8
20260506133127 14 11 12.9 25.7 0.00 0.00 0.00 50 1009.8
20260506132624 14 7 9.7 19.3 0.00 0.00 0.00 50 1009.8
20260506131623 14 29 11.3 25.7 0.00 0.00 0.00 50 1009.8
20260506131126 14 44 9.7 25.7 0.00 0.00 0.00 49 1009.8
20260506130124 14 42 11.3 24.1 0.00 0.00 0.00 51 1009.7
20260506125623 14 56 12.9 27.4 0.00 0.00 0.00 49 1009.7
20260506125124 14 43 8.0 20.9 0.00 0.00 0.00 53 1009.7
20260506124623 14 60 12.9 25.7 0.00 0.00 0.00 52 1009.7
20260506124126 14 14 6.4 19.3 0.00 0.00 0.00 53 1009.7
20260506123623 14 1 14.5 30.6 0.00 0.00 0.00 53 1009.6
20260506123125 14 18 9.7 17.7 0.00 0.00 0.00 52 1009.6
20260506122623 14 23 9.7 24.1 0.00 0.00 0.00 52 1009.6
20260506122126 13 26 9.7 22.5 0.00 0.00 0.00 52 1009.6
20260506121623 13 41 9.7 19.3 0.00 0.00 0.00 51 1009.6
20260506120623 13 3 11.3 22.5 0.00 0.00 0.00 54 1009.6
20260506120127 14 25 12.9 29.0 0.00 0.00 0.00 53 1009.5
20260506115126 13 18 9.7 22.5 0.00 0.00 0.00 56 1009.5
20260506114623 13 6 14.5 29.0 0.00 0.00 0.00 57 1009.6
20260506114125 13 1 12.9 27.4 0.00 0.00 0.00 57 1009.6
20260506113623 13 353 12.9 24.1 0.00 0.00 0.00 56 1009.6
20260506113126 13 355 14.5 27.4 0.00 0.00 0.00 57 1009.6
20260506112623 13 348 14.5 27.4 0.00 0.00 0.00 56 1009.5
20260506112126 13 4 14.5 30.6 0.00 0.00 0.00 56 1009.6
20260506111623 14 24 11.3 20.9 0.00 0.00 0.00 56 1009.5
20260506110126 13 356 11.3 29.0 0.00 0.00 0.00 59 1009.5
20260506105625 13 355 17.7 33.8 0.00 0.00 0.00 60 1009.5
20260506104623 13 359 14.5 29.0 0.00 0.00 0.00 68 1009.5
20260506104124 13 1 11.3 24.1 0.00 0.00 0.00 68 1009.5
20260506103623 13 2 16.1 30.6 0.00 0.00 0.00 69 1009.5
20260506102623 13 355 16.1 32.2 0.00 0.00 0.00 71 1009.5
20260506102126 13 357 11.3 22.5 0.00 0.00 0.00 71 1009.4
20260506101623 13 2 14.5 27.4 0.00 0.00 0.00 71 1009.4
20260506101126 13 352 14.5 27.4 0.00 0.00 0.00 71 1009.5
20260506100623 12 357 17.7 29.0 0.00 0.00 0.00 71 1009.4
20260506100126 13 359 14.5 27.4 0.00 0.00 0.00 72 1009.4
20260506095623 12 356 14.5 37.0 0.00 0.00 0.00 73 1009.3
20260506095126 13 353 12.9 33.8 0.00 0.00 0.00 74 1009.4
20260506094623 13 360 16.1 27.4 0.00 0.00 0.00 73 1009.4
20260506094125 13 4 17.7 33.8 0.00 0.00 0.00 73 1009.3
20260506093623 13 3 14.5 29.0 0.00 0.00 0.00 75 1009.3
20260506093127 13 357 16.1 29.0 0.00 0.00 0.00 75 1009.3
20260506092623 13 357 14.5 33.8 0.00 0.00 0.00 75 1009.2
20260506092127 13 4 14.5 32.2 0.00 0.00 0.00 75 1009.2
20260506091623 13 8 14.5 32.2 0.00 0.00 0.00 74 1009.2
20260506091127 13 357 12.9 29.0 0.00 0.00 0.00 75 1009.2
20260506090624 13 1 14.5 33.8 0.00 0.00 0.00 75 1009.2
20260506085623 12 2 12.9 30.6 0.00 0.00 0.00 78 1009.2
20260506084623 12 357 14.5 32.2 0.00 0.00 0.00 78 1009.2
20260506083623 12 356 12.9 24.1 0.00 0.00 0.00 77 1009.1
20260506083125 13 16 9.7 24.1 0.00 0.00 0.00 77 1009.1
20260506082126 12 356 12.9 27.4 0.00 0.00 0.00 76 1009.0
20260506081623 12 8 12.9 20.9 0.00 0.00 0.00 77 1009.0
20260506081126 12 351 12.9 27.4 0.00 0.00 0.00 78 1009.0
20260506080623 12 356 16.1 27.4 0.00 0.00 0.00 78 1009.0
20260506080124 12 12 11.3 29.0 0.00 0.00 0.00 76 1008.9